Back to catalog

NOAA 16 DEB

AlivePO
NORAD 41350·DEBRIS·🇺🇸 United States

Launched Sep 21, 2000 from Vandenberg Space Force Base

Loading…

Next Passes (next 24 hours)

TLE

FreshSource: Space-Track

Epoch: Sep 13, 2026, 13:59 UTC

1 41350U 00055HT  26256.58270087  .00004746  00000-0  11556-2 0  9992
2 41350  99.0354 126.6831 0013867 232.2032 127.7906 14.53208186551811

Track NOAA 16 DEB in real time with AllMySat

Download on the App Store